Voltar ao catálogo

SL-8 DEB

AtivoSSO
NORAD 27768·DEBRIS·🇷🇺 Russia

Lançado Nov 28, 2002 de Plesetsk Cosmodrome

Loading…

Próximas Passagens (próximas 24 horas)

TLE

AtualizadoSource: Space-Track

Época: Sep 14, 2026, 14:56 UTC

1 27768U 02054D   26257.62222549  .00001721  00000-0  24900-3 0  9994
2 27768  98.2485 134.3940 0025563 267.3137  92.5147 14.77313395268526

Acompanhe SL-8 DEB em tempo real com AllMySat

Download on the App Store